DW9572 Weather Reports


time (UTC)temp
F
wind
direction
speed
knots
gust
knots
rain 1hr
in
rain 24hr
in
rain mn
in
humidity
%
barometer
mb
20260902051603 75 212 4.3 9.6 0.00 0.00 0.00 42 1004.0
20260902050055 74 55 2.6 7.0 0.00 0.00 0.00 43 1003.7
20260902044545 74 288 3.5 8.7 0.00 0.00 0.00 42 1003.3
20260902043046 71 308 3.5 7.8 0.00 0.00 0.00 49 1003.3
20260902041542 72 276 5.2 7.8 0.00 0.00 0.00 49 1003.3
20260902040041 74 333 1.7 6.1 0.00 0.00 0.00 47 1003.1
20260902034540 75 68 1.7 2.6 0.00 0.00 0.00 47 1003.0
20260902033039 75 345 1.7 5.2 0.00 0.00 0.00 46 1002.7
20260902031542 76 332 0.9 1.7 0.00 0.00 0.00 46 1002.5
20260902030038 76 98 0.0 1.7 0.00 0.00 0.00 45 1002.3
20260902024538 76 305 0.0 0.9 0.00 0.00 0.00 45 1002.5
20260902023019 77 290 0.9 2.6 0.00 0.00 0.00 43 1002.4
20260902021530 78 150 0.9 7.0 0.00 0.00 0.00 42 1002.4
20260902020131 78 132 5.2 7.0 0.00 0.00 0.00 42 1002.2
20260902014603 79 110 7.0 10.4 0.00 0.00 0.00 41 1002.3
20260902013040 80 96 7.0 11.3 0.00 0.00 0.00 40 1002.4
20260902011542 80 120 7.8 10.4 0.00 0.00 0.00 39 1002.4
20260902010027 82 142 5.2 9.6 0.00 0.00 0.00 39 1002.3
20260902004524 82 110 7.8 10.4 0.00 0.00 0.00 38 1002.4
20260902003005 83 114 7.0 9.6 0.00 0.00 0.00 36 1002.4
20260902001502 84 151 7.0 10.4 0.00 0.00 0.00 32 1002.4
20260902000046 84 145 7.0 8.7 0.00 0.00 0.00 33 1002.4
20260901234601 85 175 5.2 7.8 0.00 0.00 0.00 32 1002.6
20260901233024 85 143 4.3 8.7 0.00 0.00 0.00 30 1002.7
20260901231521 84 132 1.7 9.6 0.00 0.00 0.00 31 1002.6
20260901230008 84 191 5.2 12.2 0.00 0.00 0.00 31 1002.9
20260901224600 84 195 11.3 15.6 0.00 0.00 0.00 32 1002.9
20260901223041 83 221 13.9 16.5 0.00 0.00 0.00 33 1003.0
20260901221602 82 215 11.3 15.6 0.00 0.00 0.00 35 1003.3
20260901220017 82 194 7.8 12.2 0.00 0.00 0.00 34 1003.4
20260901214518 81 181 6.1 11.3 0.00 0.00 0.00 35 1003.5
20260901213003 82 221 7.8 13.9 0.00 0.00 0.00 33 1003.8
20260901211601 81 197 7.0 12.2 0.00 0.00 0.00 35 1003.9
20260901210056 80 198 6.1 12.2 0.00 0.00 0.00 35 1004.3
20260901204557 80 202 6.1 11.3 0.00 0.00 0.00 34 1004.5
20260901203101 79 204 2.6 8.7 0.00 0.00 0.00 37 1004.7
20260901201550 79 201 7.8 12.2 0.00 0.00 0.00 37 1005.0
20260901200044 77 204 6.1 10.4 0.00 0.00 0.00 40 1005.0
20260901194543 76 207 7.0 10.4 0.00 0.00 0.00 39 1005.2
20260901193024 76 155 2.6 6.1 0.00 0.00 0.00 41 1005.2
20260901191524 76 141 3.5 9.6 0.00 0.00 0.00 41 1005.2
20260901190057 75 207 7.0 9.6 0.00 0.00 0.00 41 1005.6
20260901184602 74 179 3.5 7.8 0.00 0.00 0.00 44 1005.7
20260901183040 74 195 5.2 8.7 0.00 0.00 0.00 44 1005.7
20260901181541 74 139 4.3 7.0 0.00 0.00 0.00 43 1005.7
20260901180035 72 193 1.7 4.3 0.00 0.00 0.00 47 1005.9
20260901174533 72 156 2.6 4.3 0.00 0.00 0.00 48 1006.0
20260901173030 71 134 1.7 5.2 0.00 0.00 0.00 48 1006.1
20260901171529 71 152 1.7 2.6 0.00 0.00 0.00 47 1005.9
20260901170028 70 128 0.9 4.3 0.00 0.00 0.00 48 1005.8
20260901164526 69 124 1.7 4.3 0.00 0.00 0.00 49 1005.9
20260901163005 69 141 1.7 4.3 0.00 0.00 0.00 52 1006.1
20260901161511 68 172 1.7 5.2 0.00 0.00 0.00 52 1006.0
20260901160052 67 105 1.7 3.5 0.00 0.00 0.00 51 1005.7
20260901154538 66 96 1.7 2.6 0.00 0.00 0.00 55 1005.6
20260901153021 66 120 0.0 1.7 0.00 0.00 0.00 56 1005.7
20260901151519 65 127 0.0 0.9 0.00 0.00 0.00 57 1005.8
20260901150104 64 79 0.0 0.0 0.00 0.00 0.00 60 1005.8
20260901144557 63 79 0.0 1.7 0.00 0.00 0.00 61 1005.7
20260901143037 62 89 2.6 3.5 0.00 0.00 0.00 62 1005.3
20260901141538 64 148 0.9 1.7 0.00 0.00 0.00 57 1005.1
20260901140017 63 61 0.0 1.7 0.00 0.00 0.00 55 1005.2
20260901134528 63 284 2.6 5.2 0.00 0.00 0.00 54 1005.1
20260901133056 63 188 0.9 4.3 0.00 0.00 0.00 53 1005.1
20260901131553 62 177 2.6 7.0 0.00 0.00 0.00 56 1004.9
20260901130035 63 6 0.9 3.5 0.00 0.00 0.00 60 1005.1
20260901124540 63 44 0.0 3.5 0.00 0.00 0.00 57 1004.9
20260901123017 63 69 0.0 1.7 0.00 0.00 0.00 56 1005.0
20260901121516 63 16 0.0 4.3 0.00 0.00 0.00 56 1004.8
20260901120104 62 67 1.7 2.6 0.00 0.00 0.00 59 1005.0
20260901114600 65 151 2.6 6.1 0.00 0.00 0.00 52 1005.1
20260901113105 65 270 1.7 2.6 0.00 0.00 0.00 51 1004.8
20260901111541 65 264 0.0 4.3 0.00 0.00 0.00 50 1004.7
20260901110022 66 279 1.7 6.1 0.00 0.00 0.00 49 1004.7
20260901104522 66 305 3.5 6.1 0.00 0.00 0.00 50 1004.7
20260901103009 66 302 2.6 6.1 0.00 0.00 0.00 49 1004.9
20260901101508 66 294 0.9 2.6 0.00 0.00 0.00 48 1005.0
20260901100008 65 270 0.0 2.6 0.00 0.00 0.00 50 1004.9
20260901094507 64 336 0.0 1.7 0.00 0.00 0.00 51 1004.9
20260901093016 66 159 0.0 2.6 0.00 0.00 0.00 48 1005.0
20260901091506 67 286 2.6 4.3 0.00 0.00 0.00 46 1004.9
20260901090008 67 309 0.9 3.5 0.00 0.00 0.00 45 1005.0
20260901084517 69 278 4.3 7.0 0.00 0.00 0.00 43 1004.8
20260901083047 69 276 3.5 5.2 0.00 0.00 0.00 42 1004.9
20260901081551 70 273 3.5 8.7 0.00 0.00 0.00 42 1005.0
20260901080037 71 283 6.1 10.4 0.00 0.00 0.00 38 1005.2
20260901074528 72 264 6.1 9.6 0.00 0.00 0.00 35 1005.2
20260901073010 73 278 2.6 7.0 0.00 0.00 0.00 35 1005.1
20260901071510 72 281 4.3 8.7 0.00 0.00 0.00 35 1005.2
20260901070100 72 276 7.0 10.4 0.00 0.00 0.00 36 1005.2
20260901064550 72 294 5.2 7.8 0.00 0.00 0.00 36 1005.4
20260901063032 72 266 6.1 8.7 0.00 0.00 0.00 35 1005.4
20260901061531 74 186 1.7 5.2 0.00 0.00 0.00 33 1005.4
20260901060013 74 302 4.3 7.8 0.00 0.00 0.00 33 1005.5
20260901054515 74 291 4.3 7.8 0.00 0.00 0.00 33 1005.6
20260901053128 75 296 5.2 9.6 0.00 0.00 0.00 32 1005.6